Terug naar catalogus

STARLINK-34026

ActiefCommunicatieVLEO
NORAD 63842·PAYLOAD·🇺🇸 United States

Gelanceerd May 7, 2025 vanaf Cape Canaveral Space Force Station

Loading…

Volgende Passages (komende 24 uur)

TLE

VersSource: CelesTrak SupGP

Epoch: Sep 14, 2026, 23:02 UTC

1 63842C 25093G   26257.96020833  .00035999  00000+0  13042-2 0  2578
2 63842  43.0008  89.2324 0001499 276.1599 168.0615 15.27551125    12

Volg STARLINK-34026 in realtime met AllMySat

Download on the App Store